User: anonymous   Login
Location: Caltech
(34.1382°N, 118.1253°W)
Time: 03:27:46
(UTC-07:00)
Language:

Cosmos 1408 Rocket - Orbit

View from above orbital plane
View from above orbital plane
View from above satellite
View from above satellite

Ground track
Ground track

The orbit data is extracted from the following two-line orbital elements,

1 13553U 82092B   17147.87027800 +.00000094 +00000-0 +82707-5 0  9992
2 13553 082.5700 253.0022 0022922 110.6824 025.1187 14.84121310874024
Epoch (UTC): 27 May 2017 20:53:12
Eccentricity: 0.0022922
inclination: 82.5700°
perigee height: 600 km
apogee height: 632 km
right ascension of ascending node: 253.0022°
argument of perigee: 110.6824°
revolutions per day: 14.84121310
mean anomaly at epoch: 25.1187°
orbit number at epoch: 87402

The dashed part of the orbit path shows where the satellite is in the earth's shadow,  

DLR